Regional Weather Roundup
Issued by NWS

Home | Current Version | Previous Version | Graphics & Text | Print | Product List | Glossary On
Versions: 1 2 3 4 5 6 7 8 9 10 11 12 13 14 15 16 17 18 19 20 21 22 23 24 25 26 27 28
000
ASUS45 KCYS 230910
RWRWY

WYOMING REGIONAL WEATHER ROUNDUP
NATIONAL WEATHER SERVICE CHEYENNE WY
300 AM MDT SAT SEP 23 2017

NOTE:  "FAIR" INDICATES FEW OR NO CLOUDS BELOW 12,000 FEET
WITH NO SIGNIFICANT WEATHER AND/OR OBSTRUCTIONS TO VISIBILITY.

WYZ001-231000-
YELLOWSTONE NATIONAL PARK

CITY           SKY/WX    TMP DP  RH WIND       PRES   REMARKS
LK YELLOWSTONE NOT AVBL
W YELLOWSTONE  NOT AVBL

$$
WYZ002>013-054>058-071-098>099-231000-
NORTHERN WYOMING

CITY           SKY/WX    TMP DP  RH WIND       PRES   REMARKS
JACKSON        CLOUDY    33  32  96 NW6       30.02R WCI  28
CODY           CLOUDY    36  34  92 N3        30.04S
GREYBULL       CLOUDY    42  40  92 CALM      30.02F
WORLAND        LGT RAIN  40  39  97 NE5       30.02F
SHERIDAN       MOCLDY    40  39  97 S3        30.05S
BUFFALO        CLOUDY    38  35  89 SE6       30.06S WCI  33
GILLETTE       CLOUDY    40  36  86 N9        30.05R WCI  34
HULETT         CLOUDY    41  37  87 E6        30.07R
NEWCASTLE      CLOUDY    41  39  93 SW10      30.03R

$$
WYZ014>020-022>026-101>103-231000-
CENTRAL WYOMING

CITY           SKY/WX    TMP DP  RH WIND       PRES   REMARKS
BIG PINEY      CLOUDY    32  32 100 W3        30.01S
PINEDALE       CLOUDY    34  32  93 NW6       30.01S WCI  29
DUBOIS         CLOUDY    32  32 100 NW5       29.99S WCI  27
LANDER           N/A    N/A N/A N/A MISG      30.00S
RIVERTON       CLOUDY    40  40 100 CALM      30.01S
CASPER         LGT RAIN  40  38  93 NE15      30.00F FOG     WCI  32
DOUGLAS        CLOUDY    43  41  93 NE9       30.03R

$$
WYZ021-027>030-104>119-231000-
SOUTHERN WYOMING

CITY           SKY/WX    TMP DP  RH WIND       PRES   REMARKS
EVANSTON       CLOUDY    34  31  88 E5        29.99S WCI  30
KEMMERER         N/A     32  30  93 N5        30.01R WCI  27
FORT BRIDGER   CLOUDY    37  37 100 S3        30.03F
ROCK SPRINGS   CLOUDY    36  34  92 W6        30.01S WCI  31
DIXON          CLOUDY    41  33  73 N7        30.01R
RAWLINS        CLOUDY    40  34  79 SW8       29.98F WCI  34
SARATOGA       FAIR      36  36 100 W6        29.98F WCI  31
LARAMIE        FAIR      39  36  89 CALM      29.99S
CHEYENNE       FAIR      42  37  82 N7        30.00S
TORRINGTON     FAIR      45  38  76 N6        30.01R
PINE BLUFFS    LGT RAIN  45  37  76 MISG      29.98R

$$




USA.gov is the U.S. government's official web portal to all federal, state and local government web resources and services.